[Iaude] MPEC G43: 2024 GJ [a=2.72,e=0.56,i=26.0,H=19.5]

mpec at cfa.harvard.edu mpec at cfa.harvard.edu
Thu Apr 4 08:44:49 EDT 2024


M.P.E.C. 2024-G43                                 Issued 2024 April 4, 12:43 UT

     The Minor Planet Electronic Circulars contain information on unusual
         minor planets, routine data on comets and natural satellites,
         and occasional editorial announcements.  They are published
    on behalf of Division F of the International Astronomical Union by the
          Minor Planet Center, Smithsonian Astrophysical Observatory,
                          Cambridge, MA 02138, U.S.A.
			  
             Prepared using the Tamkin Foundation Computer Network

                              MPC at CFA.HARVARD.EDU
            URL https://www.minorplanetcenter.net/    ISSN 1523-6714

                                    2024 GJ                                     


Observations:
     K24G00J* C2024 04 01.36588713 11 58.098+06 25 50.71         21.22wXEG043F51
     K24G00J  C2024 04 01.37702513 11 56.869+06 25 46.78         21.29wXEG043F51
     K24G00J  C2024 04 01.38824113 11 55.632+06 25 42.81         21.21wXEG043F51
     K24G00J  C2024 04 01.39942113 11 54.395+06 25 38.90         21.37wXEG043F51
     K24G00J  C2024 04 01.52911213 11 39.998+06 24 52.48         21.26GVEG043F52
     K24G00J  C2024 04 01.52976213 11 39.935+06 24 52.30         21.40GVEG043F52
     K24G00J KB2024 04 03.22556 13 08 34.786+06 14 14.28         21.0 GVEG043734
     K24G00J KB2024 04 03.23873 13 08 33.365+06 14 09.31         20.9 GVEG043734
     K24G00J KC2024 04 03.24872313 08 32.26 +06 14 05.9          20.9 GXEG043858
     K24G00J KB2024 04 03.25156 13 08 31.836+06 14 03.98         20.9 GVEG043734
     K24G00J KC2024 04 03.26428513 08 30.46 +06 13 59.4          20.9 GXEG043858
     K24G00J KC2024 04 04.24304213 06 40.446+06 07 27.12         20.84GVEG043I52
     K24G00J KC2024 04 04.24532213 06 40.201+06 07 26.04         21.15GVEG043I52
     K24G00J KC2024 04 04.24761313 06 39.884+06 07 25.18         20.51GVEG043I52
     K24G00J KC2024 04 04.24989513 06 39.647+06 07 23.99         21.03GVEG043I52
     K24G00J KC2024 04 04.25562813 06 38.95 +06 07 21.6          20.5 GXEG043858
     K24G00J KC2024 04 04.26590013 06 37.72 +06 07 17.3          21.3 GXEG043858
     K24G00J KC2024 04 04.27623813 06 36.51 +06 07 12.9          20.8 GXEG043858

Observer details:
734 Farpoint Observatory, Eskridge.  Observers D. Cromer, G. Hug, D. Goodin,
    R. Valentine, P. Lessig.  Measurer G. Hug.  0.69-m f/3.54 reflector + CMO.
858 Tebbutt Observatory, Edgewood.  Observer F. B. Zoltowski.  0.51-m f/8.1
    Schmidt-Cassegrain + CCD.
F51 Pan-STARRS 1, Haleakala.  Observers J. Herman, T. Lowe, P. Minguez, A.
    Schultz, I. Smith.  Measurers K. Chambers, T. de Boer, J. Fairlamb, H.
    Gao, M. Huber, C.-C. Lin, E. Magnier, Y. Ramanjooloo, R. Wainscoat, R.
    Weryk.  1.8-m Ritchey-Chretien + CCD.
F52 Pan-STARRS 2, Haleakala.  Observers J. Herman, T. Lowe, P. Minguez, A.
    Schultz, I. Smith.  Measurers K. Chambers, T. de Boer, J. Fairlamb, H.
    Gao, M. Huber, C.-C. Lin, E. Magnier, Y. Ramanjooloo, R. Wainscoat, R.
    Weryk.  1.8-m Ritchey-Chretien + CCD.
I52 Steward Observatory, Mt. Lemmon Station.  Observer R. A. Kowalski.
    Measurers T. Beuden, V. F. Carvajal, D. Fay, J. B. Fazekas, D. C. Fuls, A.
    R. Gibbs, A. D. Grauer, H. Groeller, J. K. Hogan, R. A. Kowalski, S. M.
    Larson, G. J. Leonard, D. Rankin, R. L. Seaman, F. C. Shelly, K. W.
    Wierzchos.  1.0-m prime focus + CCD.

Orbital elements:
2024 GJ                                                  Earth MOID = 0.4215 AU
Epoch 2024 Mar. 31.0 TT = JDT 2460400.5                 Veres                   
M 329.09350              (2000.0)            P               Q                  
n   0.22025490     Peri.  258.35940     +0.20131644     +0.96079983             
a   2.7155158      Node    25.78686     -0.63713452     +0.27625319             
e   0.5632212      Incl.   25.98772     -0.74399684     +0.02340649             
P   4.47           H   19.58          G   0.15           U   9                  
Residuals in seconds of arc
240401 F51  0.0   0.0     240403 734  0.5-  0.0     240404 I52  0.3+  0.0
240401 F51  0.0   0.0     240403 734  0.8+  0.2+    240404 I52  0.4-  0.1+
240401 F51  0.0   0.0     240403 858  0.1-  0.1+    240404 I52  0.0   0.2-
240401 F51  0.0   0.0     240403 734  0.1-  0.2-    240404 858  0.3+  0.2+
240401 F52  0.1-  0.0     240403 858  0.3-  0.3-    240404 858  0.1-  0.1+
240401 F52  0.1+  0.0     240404 I52  0.0   0.1+    240404 858  0.1-  0.1-

Ephemeris:
2024 GJ                  a,e,i = 2.72, 0.56, 26                  q = 1.1861
Date    TT    R. A. (2000) Decl.     Delta      r    Elong.  Phase     V
2024 03 05    13 43 24.4 +07 48 21   1.2366  2.0971   140.2    17.6    22.6
...
2024 03 20    13 30 37.0 +07 18 45   1.0408  1.9918   155.9    11.8    21.9
...
2024 03 28    13 19 21.1 +06 48 56   0.9567  1.9352   163.8     8.3    21.5
...
2024 04 03    13 08 59.8 +06 15 48   0.9041  1.8926   167.4     6.6    21.2
2024 04 04    13 07 07.8 +06 09 11   0.8963  1.8855   167.7     6.5    21.2
2024 04 05    13 05 13.7 +06 02 15   0.8887  1.8783   167.7     6.5    21.2
...
2024 04 11    12 53 10.7 +05 13 02   0.8491  1.8357   165.1     8.1    21.1
...
2024 04 19    12 36 07.1 +03 45 44   0.8115  1.7788   156.7    12.9    21.1
...
2024 05 04    12 05 39.1 -00 02 28   0.7840  1.6731   137.6    24.0    21.3

M. P. C. Staff               (C) Copyright 2024 MPC           M.P.E.C. 2024-G43





More information about the Iaude mailing list